Data for 01/30/2018

Time Sea-Level Adjusted Pressure Absolute Pressure Temperature Relative Humidity Dew Point   
(mb) (inHg) (mb) (inHg) (C) (F) (%) (C) (F)
00:05 1015 29.97 845 24.95 8.8 47.8 33 -6.4 20.4
00:10 1015 29.97 845 24.95 8.6 47.5 34 -6.5 20.4
00:15 1015 29.97 845 24.95 8.7 47.7 33 -6.6 20.2
00:20 1015 29.97 845 24.95 8.7 47.7 33 -6.5 20.2
00:25 1015 29.97 844 24.92 8.8 47.8 34 -6.4 20.5
00:30 1015 29.97 844 24.92 8.9 48 34 -6.1 21
00:35 1015 29.97 844 24.92 8.9 47.9 35 -5.9 21.4
00:40 1015 29.97 844 24.92 8.6 47.5 35 -5.8 21.5
00:45 1015 29.97 844 24.92 8.7 47.6 34 -6.4 20.4
00:50 1015 29.97 844 24.92 8.9 48 33 -6.4 20.4
00:55 1014 29.94 844 24.92 9 48.1 33 -6.3 20.7
01:00 1014 29.94 843 24.89 8.7 47.7 34 -6.2 20.8
01:05 1014 29.94 843 24.89 8.7 47.6 33 -6.7 20
01:10 1014 29.94 843 24.89 8.9 48 33 -6.4 20.5
01:15 1014 29.94 843 24.89 8.8 47.9 33 -6.4 20.4
01:20 1014 29.94 843 24.89 8.8 47.8 34 -6.3 20.7
01:25 1014 29.94 843 24.89 8.7 47.6 35 -6 21.2
01:30 1013 29.91 843 24.89 8.7 47.6 34 -6.3 20.6
01:35 1013 29.91 842 24.86 8.6 47.4 35 -5.9 21.4
01:40 1013 29.91 842 24.86 8.2 46.8 36 -5.9 21.3
01:45 1013 29.91 842 24.86 8.4 47.1 35 -6.2 20.9
01:50 1013 29.91 842 24.86 8.4 47 37 -5.6 21.9
01:55 1013 29.91 842 24.86 7.9 46.3 38 -5.4 22.2
02:00 1013 29.91 842 24.86 7.7 45.8 39 -5.3 22.4
02:05 1013 29.91 842 24.86 7.7 45.9 38 -5.8 21.6
02:10 1013 29.91 842 24.86 7.8 46 39 -5.4 22.3
02:15 1013 29.91 842 24.86 7.6 45.7 39 -5.4 22.3
02:20 1013 29.91 842 24.86 7.5 45.4 40 -5.2 22.6
02:25 1012 29.88 842 24.86 7.2 45 41 -5 23
02:30 1012 29.88 842 24.86 7.2 44.9 40 -5.5 22
02:35 1012 29.88 842 24.86 7.3 45.2 40 -5.3 22.5
02:40 1012 29.88 841 24.83 7.2 45 40 -5.4 22.4
02:45 1012 29.88 841 24.83 7.2 45 40 -5.3 22.4
02:50 1012 29.88 841 24.83 7.2 45 40 -5.3 22.4
02:55 1012 29.88 841 24.83 7.3 45.2 39 -5.6 22
03:00 1012 29.88 841 24.83 7.4 45.3 40 -5.4 22.4
03:05 1012 29.88 841 24.83 7.2 45 41 -5 22.9
03:10 1012 29.88 841 24.83 7.1 44.7 41 -5.2 22.6
03:15 1012 29.88 841 24.83 6.9 44.5 42 -5.2 22.6
03:20 1012 29.88 841 24.83 7 44.7 40 -5.6 21.9
03:25 1012 29.88 841 24.83 7.4 45.2 38 -6 21.2
03:30 1012 29.88 841 24.83 7.8 46 38 -5.7 21.7
03:35 1012 29.88 841 24.83 7.8 46 39 -5.3 22.5
03:40 1012 29.88 841 24.83 7.5 45.6 41 -4.9 23.2
03:45 1012 29.88 841 24.83 7.3 45.1 41 -5.1 22.8
03:50 1012 29.88 841 24.83 7.2 45 41 -5.1 22.9
03:55 1012 29.88 841 24.83 7.3 45.2 40 -5.5 22.1
04:00 1012 29.88 841 24.83 7.7 45.8 39 -5.5 22
04:05 1012 29.88 841 24.83 7.8 46.1 38 -5.5 22
04:10 1012 29.88 841 24.83 7.8 46 40 -5.1 22.8
04:15 1012 29.88 841 24.83 7.5 45.6 40 -5 22.9
04:20 1012 29.88 841 24.83 7.4 45.2 41 -4.9 23.1
04:25 1012 29.88 841 24.83 7.2 45 41 -5 22.9
04:30 1012 29.88 841 24.83 7.3 45.1 39 -5.6 21.9
04:35 1011 29.85 841 24.83 7.9 46.3 34 -7.1 19.1
04:40 1011 29.85 841 24.83 8.9 48.1 34 -6.1 21
04:45 1011 29.85 840 24.81 8.6 47.6 35 -6.1 21
04:50 1011 29.85 840 24.81 8.5 47.4 35 -5.9 21.4
04:55 1011 29.85 840 24.81 8.3 47 37 -5.6 21.9
05:00 1011 29.85 840 24.81 8.1 46.5 38 -5.4 22.3
05:05 1011 29.85 840 24.81 7.8 46.1 38 -5.5 22.1
05:10 1011 29.85 840 24.81 7.8 46 38 -5.8 21.6
05:15 1011 29.85 840 24.81 8 46.4 37 -5.7 21.7
05:20 1011 29.85 840 24.81 8.1 46.6 36 -6 21.1
05:25 1011 29.85 840 24.81 8.5 47.2 35 -6 21.1
05:30 1011 29.85 840 24.81 8.8 47.9 35 -6 21.3
05:35 1011 29.85 840 24.81 8.8 47.8 36 -5.5 22.1
05:40 1011 29.85 840 24.81 8.5 47.3 36 -5.6 22
05:45 1011 29.85 840 24.81 8.3 46.9 38 -5.3 22.5
05:50 1011 29.85 840 24.81 8.1 46.5 38 -5.4 22.3
05:55 1011 29.85 840 24.81 8.2 46.8 37 -5.5 22.1
06:00 1011 29.85 840 24.81 8.4 47 37 -5.3 22.4
06:05 1011 29.85 840 24.81 8.1 46.5 40 -4.8 23.3
06:10 1011 29.85 840 24.81 7.8 46.1 40 -5 23.1
06:15 1011 29.85 840 24.81 7.8 46 41 -4.6 23.7
06:20 1011 29.85 840 24.81 7.6 45.7 42 -4.4 24.1
06:25 1011 29.85 840 24.81 7.4 45.2 43 -4.4 24.2
06:30 1011 29.85 840 24.81 7.2 45 44 -4.3 24.3
06:35 1011 29.85 840 24.81 7.1 44.8 44 -4.2 24.4
06:40 1011 29.85 840 24.81 7 44.6 45 -4.2 24.4
06:45 1011 29.85 840 24.81 6.9 44.5 45 -4.2 24.4
06:50 1011 29.85 840 24.81 7.3 45.1 40 -5.4 22.4
06:55 1011 29.85 840 24.81 7.8 46 41 -4.8 23.4
07:00 1011 29.85 840 24.81 7.7 45.9 41 -4.8 23.4
07:05 1011 29.85 840 24.81 7.8 46 41 -4.6 23.6
07:10 1011 29.85 840 24.81 7.8 46 41 -4.7 23.6
07:15 1011 29.85 840 24.81 7.7 45.9 40 -4.9 23.2
07:20 1011 29.85 840 24.81 7.7 45.9 41 -4.7 23.5
07:25 1011 29.85 840 24.81 7.6 45.6 41 -4.7 23.6
07:30 1011 29.85 840 24.81 7.5 45.5 42 -4.5 23.9
07:35 1011 29.85 840 24.81 7.3 45.1 43 -4.5 23.9
07:40 1010 29.83 840 24.81 7.3 45.1 42 -4.8 23.3
07:45 1010 29.83 840 24.81 7.4 45.3 42 -4.6 23.8
07:50 1010 29.83 840 24.81 7.3 45.1 42 -4.6 23.7
07:55 1010 29.83 839 24.78 7.2 45 42 -4.7 23.5
08:00 1010 29.83 839 24.78 7.3 45.2 42 -4.7 23.6
08:05 1010 29.83 839 24.78 7.3 45.1 42 -4.6 23.7
08:10 1010 29.83 839 24.78 7.2 45 43 -4.7 23.6
08:15 1010 29.83 839 24.78 7.2 45 42 -4.7 23.6
08:20 1010 29.83 839 24.78 7.3 45.2 41 -5.2 22.7
08:25 1010 29.83 839 24.78 7.6 45.6 40 -5 22.9
08:30 1010 29.83 839 24.78 7.6 45.7 40 -5.1 22.8
08:35 1010 29.83 839 24.78 7.6 45.7 41 -4.9 23.1
08:40 1010 29.83 839 24.78 7.6 45.6 41 -4.9 23.2
08:45 1010 29.83 839 24.78 7.6 45.6 40 -5.2 22.7
08:50 1010 29.83 839 24.78 7.6 45.6 41 -5 23
08:55 1010 29.83 839 24.78 7.6 45.6 40 -5.3 22.5
09:00 1010 29.83 839 24.78 7.8 46 39 -5.3 22.4
09:05 1010 29.83 839 24.78 7.9 46.2 39 -5.2 22.6
09:10 1009 29.8 839 24.78 7.9 46.1 40 -5 23
09:15 1009 29.8 839 24.78 7.7 45.9 41 -4.8 23.4
09:20 1009 29.8 839 24.78 7.7 45.8 40 -5.1 22.9
09:25 1009 29.8 838 24.75 7.8 46 40 -5 23
09:30 1009 29.8 838 24.75 7.8 46 40 -4.9 23.1
09:35 1009 29.8 838 24.75 7.6 45.7 40 -5 23
09:40 1009 29.8 838 24.75 7.7 45.8 40 -5.2 22.6
09:45 1009 29.8 838 24.75 7.8 46.1 39 -5.3 22.5
09:50 1009 29.8 838 24.75 8 46.4 38 -5.5 22.1
09:55 1009 29.8 838 24.75 8 46.3 39 -5 23
10:00 1009 29.8 838 24.75 7.8 46 39 -5.3 22.4
10:05 1009 29.8 838 24.75 8 46.5 38 -5.4 22.2
10:10 1009 29.8 838 24.75 8.2 46.7 38 -5.3 22.4
10:15 1009 29.8 838 24.75 8 46.4 39 -5.2 22.6
10:20 1009 29.8 838 24.75 8 46.4 38 -5.6 21.9
10:25 1009 29.8 838 24.75 8.3 46.9 35 -6.2 20.9
10:30 1009 29.8 838 24.75 8.7 47.6 35 -5.9 21.4
10:35 1009 29.8 838 24.75 8.6 47.5 36 -5.5 22.1
10:40 1009 29.8 838 24.75 8.5 47.3 36 -5.9 21.4
10:45 1009 29.8 838 24.75 8.6 47.5 36 -5.7 21.7
10:50 1009 29.8 838 24.75 8.6 47.4 36 -5.7 21.8
10:55 1009 29.8 838 24.75 8.7 47.7 35 -5.9 21.3
11:00 1009 29.8 838 24.75 8.9 48 33 -6.4 20.4
11:05 1009 29.8 838 24.75 9.2 48.6 35 -5.4 22.3
11:10 1009 29.8 838 24.75 9 48.1 36 -5.3 22.5
11:15 1009 29.8 838 24.75 8.6 47.5 36 -5.4 22.2
11:20 1009 29.8 838 24.75 8.4 47.1 37 -5.3 22.4
11:25 1009 29.8 838 24.75 8.2 46.8 37 -5.5 22.1
11:30 1009 29.8 838 24.75 8.4 47.1 37 -5.5 22.2
11:35 1008 29.77 838 24.75 8.3 47 39 -4.9 23.2
11:40 1008 29.77 837 24.72 8.3 46.9 38 -5.1 22.8
11:45 1008 29.77 837 24.72 8.4 47.1 38 -5.2 22.6
11:50 1008 29.77 838 24.75 8.6 47.4 38 -5 23
11:55 1008 29.77 838 24.75 8.6 47.4 39 -4.7 23.5
12:00 1009 29.8 838 24.75 8.8 47.8 39 -4.5 24
12:05 1009 29.8 838 24.75 7.6 45.7 56 -0.7 30.8
12:10 1009 29.8 838 24.75 5.2 41.4 63 -1.2 29.8
12:15 1009 29.8 838 24.75 4.3 39.8 66 -1.5 29.3
12:20 1008 29.77 838 24.75 4 39.1 67 -1.5 29.2
12:25 1009 29.8 838 24.75 3.4 38.1 69 -1.8 28.8
12:30 1009 29.8 838 24.75 2.9 37.2 67 -2.6 27.4
12:35 1009 29.8 838 24.75 2.5 36.5 68 -2.7 27.1
12:40 1009 29.8 838 24.75 2.2 36 71 -2.5 27.5
12:45 1009 29.8 839 24.78 1.8 35.2 75 -2.2 28.1
12:50 1010 29.83 839 24.78 1.4 34.5 78 -2.1 28.3
12:55 1010 29.83 839 24.78 1.1 34 80 -1.9 28.6
13:00 1010 29.83 839 24.78 0.7 33.2 84 -1.8 28.8
13:05 1010 29.83 840 24.81 0.4 32.8 87 -1.5 29.2
13:10 1011 29.85 840 24.81 0.1 32.3 89 -1.5 29.3
13:15 1011 29.85 840 24.81 0 32.1 90 -1.4 29.6
13:20 1011 29.85 840 24.81 -0.1 31.9 91 -1.4 29.5
13:25 1011 29.85 840 24.81 -0.2 31.7 92 -1.4 29.6
13:30 1011 29.85 840 24.81 -0.2 31.6 92 -1.4 29.6
13:35 1011 29.85 841 24.83 -0.2 31.7 92 -1.3 29.7
13:40 1012 29.88 841 24.83 -0.2 31.6 92 -1.3 29.7
13:45 1012 29.88 841 24.83 -0.2 31.6 93 -1.3 29.7
13:50 1012 29.88 841 24.83 -0.3 31.5 93 -1.3 29.6
13:55 1012 29.88 841 24.83 -0.3 31.5 93 -1.3 29.7
14:00 1012 29.88 841 24.83 -0.2 31.6 93 -1.2 29.8
14:05 1012 29.88 841 24.83 -0.3 31.5 93 -1.3 29.7
14:10 1012 29.88 841 24.83 -0.3 31.5 92 -1.4 29.5
14:15 1012 29.88 841 24.83 -0.5 31.2 92 -1.6 29.1
14:20 1012 29.88 841 24.83 -0.6 31 92 -1.7 28.9
14:25 1012 29.88 841 24.83 -0.6 31 92 -1.7 28.9
14:30 1012 29.88 841 24.83 -0.6 30.9 91 -1.9 28.6
14:35 1012 29.88 841 24.83 -0.7 30.8 91 -1.9 28.5
14:40 1012 29.88 841 24.83 -0.7 30.8 91 -1.9 28.5
14:45 1012 29.88 841 24.83 -0.7 30.8 91 -2 28.4
14:50 1012 29.88 841 24.83 -0.8 30.6 91 -2 28.4
14:55 1012 29.88 841 24.83 -0.9 30.4 92 -2 28.4
15:00 1012 29.88 841 24.83 -0.8 30.6 92 -2 28.4
15:05 1012 29.88 841 24.83 -0.8 30.6 91 -2 28.4
15:10 1012 29.88 841 24.83 -0.8 30.6 91 -2 28.4
15:15 1012 29.88 841 24.83 -0.8 30.6 91 -2.1 28.3
15:20 1012 29.88 841 24.83 -0.8 30.6 90 -2.2 28.1
15:25 1012 29.88 841 24.83 -0.8 30.6 90 -2.2 28
15:30 1012 29.88 841 24.83 -0.7 30.7 89 -2.3 27.9
15:35 1012 29.88 841 24.83 -0.7 30.8 88 -2.4 27.7
15:40 1012 29.88 842 24.86 -0.7 30.7 88 -2.5 27.5
15:45 1013 29.91 842 24.86 -0.6 30.9 88 -2.4 27.8
15:50 1013 29.91 842 24.86 -0.5 31 88 -2.3 27.8
15:55 1013 29.91 842 24.86 -0.4 31.3 87 -2.4 27.8
16:00 1013 29.91 842 24.86 -0.3 31.5 85 -2.4 27.6
16:05 1013 29.91 842 24.86 -0.3 31.5 84 -2.6 27.3
16:10 1013 29.91 842 24.86 -0.3 31.5 85 -2.5 27.4
16:15 1013 29.91 843 24.89 -0.2 31.7 83 -2.6 27.2
16:20 1013 29.91 843 24.89 -0.1 31.8 83 -2.7 27.2
16:25 1013 29.91 843 24.89 -0 32 80 -3.1 26.4
16:30 1013 29.91 842 24.86 0.2 32.3 77 -3.4 25.9
16:35 1013 29.91 843 24.89 0.3 32.5 74 -3.9 25
16:40 1013 29.91 843 24.89 0.3 32.5 69 -4.7 23.5
16:45 1013 29.91 842 24.86 0.3 32.5 69 -4.7 23.5
16:50 1014 29.94 843 24.89 0.2 32.3 71 -4.5 23.8
16:55 1014 29.94 843 24.89 0.1 32.2 73 -4.2 24.5
17:00 1014 29.94 843 24.89 0 32 78 -3.3 26
17:05 1014 29.94 843 24.89 -0.1 31.7 79 -3.3 26.1
17:10 1014 29.94 843 24.89 -0.2 31.6 80 -3.2 26.2
17:15 1014 29.94 843 24.89 -0.2 31.6 80 -3.2 26.2
17:20 1014 29.94 843 24.89 -0.2 31.6 79 -3.5 25.8
17:25 1014 29.94 843 24.89 -0.1 31.8 77 -3.7 25.3
17:30 1014 29.94 843 24.89 -0.1 31.8 76 -3.9 25
17:35 1014 29.94 843 24.89 -0.1 31.7 74 -4.3 24.3
17:40 1014 29.94 843 24.89 -0.1 31.8 71 -4.8 23.4
17:45 1014 29.94 843 24.89 -0.1 31.8 69 -5 22.9
17:50 1014 29.94 843 24.89 -0 31.9 68 -5.3 22.5
17:55 1014 29.94 843 24.89 0 32.1 67 -5.3 22.4
18:00 1014 29.94 843 24.89 0.1 32.1 66 -5.6 21.9
18:05 1014 29.94 844 24.92 0.1 32.1 66 -5.6 22
18:10 1015 29.97 844 24.92 0 32 67 -5.4 22.3
18:15 1015 29.97 844 24.92 -0.1 31.8 68 -5.4 22.3
18:20 1015 29.97 844 24.92 -0.1 31.9 65 -5.9 21.4
18:25 1015 29.97 844 24.92 0 32.1 64 -5.9 21.3
18:30 1015 29.97 844 24.92 0 32.1 64 -6.1 21
18:35 1015 29.97 844 24.92 0 32 62 -6.3 20.6
18:40 1015 29.97 844 24.92 0.1 32.1 59 -7.1 19.2
18:45 1015 29.97 844 24.92 0.1 32.2 60 -6.8 19.8
18:50 1015 29.97 844 24.92 -0 32 61 -6.6 20.1
18:55 1015 29.97 844 24.92 -0.1 31.8 62 -6.5 20.3
19:00 1015 29.97 844 24.92 -0.3 31.5 59 -7.4 18.7
19:05 1015 29.97 844 24.92 -0.3 31.5 56 -8.1 17.5
19:10 1015 29.97 844 24.92 -0.2 31.6 57 -7.8 17.9
19:15 1015 29.97 844 24.92 -0.3 31.4 56 -8 17.5
19:20 1015 29.97 844 24.92 -0.4 31.2 55 -8.5 16.6
19:25 1015 29.97 844 24.92 -0.4 31.3 54 -8.5 16.6
19:30 1015 29.97 844 24.92 -0.4 31.3 53 -8.9 16
19:35 1015 29.97 844 24.92 -0.4 31.3 53 -8.9 15.9
19:40 1015 29.97 844 24.92 -0.4 31.3 51 -9.2 15.4
19:45 1015 29.97 844 24.92 -0.4 31.2 53 -9 15.8
19:50 1015 29.97 844 24.92 -0.5 31.1 53 -9 15.9
19:55 1015 29.97 844 24.92 -0.6 30.9 54 -8.8 16.1
20:00 1015 29.97 844 24.92 -0.7 30.7 54 -9.1 15.7
20:05 1015 29.97 844 24.92 -0.8 30.5 54 -9 15.7
20:10 1015 29.97 845 24.95 -0.9 30.3 57 -8.5 16.7
20:15 1015 29.97 845 24.95 -1.1 30 58 -8.4 16.8
20:20 1015 29.97 845 24.95 -1.4 29.5 57 -8.8 16.1
20:25 1015 29.97 845 24.95 -1.5 29.4 59 -8.5 16.8
20:30 1015 29.97 845 24.95 -1.5 29.2 57 -9 15.7
20:35 1015 29.97 845 24.95 -1.6 29.1 56 -9.4 15.1
20:40 1016 30 845 24.95 -1.7 29 57 -9.2 15.5
20:45 1016 30 845 24.95 -1.7 29 57 -9.1 15.6
20:50 1016 30 845 24.95 -1.7 28.9 58 -8.9 15.9
20:55 1016 30 845 24.95 -1.8 28.8 57 -9.1 15.6
21:00 1016 30 845 24.95 -1.9 28.6 58 -9.2 15.4
21:05 1016 30 845 24.95 -2 28.5 58 -9.1 15.6
21:10 1015 29.97 845 24.95 -1.9 28.7 56 -9.4 15
21:15 1015 29.97 845 24.95 -1.7 28.9 55 -9.6 14.8
21:20 1015 29.97 845 24.95 -1.7 28.9 55 -9.5 14.9
21:25 1015 29.97 845 24.95 -1.8 28.7 54 -9.8 14.3
21:30 1015 29.97 845 24.95 -2.1 28.3 55 -10 14.1
21:35 1015 29.97 845 24.95 -2.1 28.2 53 -10.4 13.2
21:40 1015 29.97 845 24.95 -2.2 28.1 53 -10.5 13.1
21:45 1016 30 845 24.95 -2.3 27.9 52 -10.8 12.6
21:50 1016 30 845 24.95 -2.5 27.5 53 -10.8 12.5
21:55 1016 30 845 24.95 -2.7 27.2 53 -11 12.3
22:00 1016 30 845 24.95 -2.7 27.2 52 -11.3 11.6
22:05 1016 30 845 24.95 -2.6 27.4 51 -11.5 11.3
22:10 1016 30 845 24.95 -2.2 28.1 50 -11.3 11.7
22:15 1016 30 845 24.95 -1.9 28.7 50 -11 12.1
22:20 1016 30 845 24.95 -1.9 28.6 50 -11 12.3
22:25 1016 30 845 24.95 -2.2 28 50 -11.2 11.9
22:30 1016 30 845 24.95 -2.5 27.6 51 -11.3 11.7
22:35 1016 30 845 24.95 -2.8 27 52 -11.4 11.5
22:40 1016 30 845 24.95 -3 26.6 50 -11.9 10.6
22:45 1016 30 845 24.95 -3 26.7 51 -11.8 10.8
22:50 1016 30 845 24.95 -2.8 27 50 -11.8 10.8
22:55 1016 30 845 24.95 -2.5 27.5 49 -11.9 10.6
23:00 1016 30 845 24.95 -2.3 27.8 49 -11.7 10.9
23:05 1016 30 845 24.95 -2.4 27.8 50 -11.3 11.7
23:10 1016 30 845 24.95 -2.4 27.7 48 -12 10.4
23:15 1016 30 845 24.95 -2.3 27.8 48 -11.9 10.5
23:20 1016 30 845 24.95 -2.3 27.8 46 -12.4 9.7
23:25 1015 29.97 845 24.95 -2.3 27.8 45 -12.7 9.2
23:30 1015 29.97 845 24.95 -2.4 27.7 46 -12.6 9.3
23:35 1016 30 845 24.95 -2.6 27.3 47 -12.5 9.6
23:40 1016 30 845 24.95 -2.9 26.9 46 -12.9 8.7
23:45 1015 29.97 845 24.95 -2.6 27.3 45 -13 8.6
23:50 1015 29.97 845 24.95 -2.4 27.6 45 -12.9 8.7
23:55 1015 29.97 845 24.95 -2.5 27.4 44 -13.1 8.5
24:00 1015 29.97 845 24.95 -2.8 27 45 -13.1 8.5